TimeCET,TemperatureF,Dew PointF,Humidity,Sea Level PressureIn,VisibilityMPH,Wind Direction,Wind SpeedMPH,Gust SpeedMPH,PrecipitationIn,Events,Conditions,WindDirDegrees,DateUTC
12:00 AM,51.8,50.0,94,30.01,5.0,ENE,6.9,-,N/A,Rain,Rain,70,2012-12-12 23:00:00
12:30 AM,51.8,50.0,94,30.01,5.0,Calm,Calm,-,N/A,Rain,Rain,0,2012-12-12 23:30:00
1:00 AM,49,48,94,30.02,5,East,2.3,,,Rain,Light Rain,80,2012-12-13 00:00:00
1:00 AM,50.0,50.0,100,30.01,5.0,ENE,3.5,-,N/A,Rain,Rain,70,2012-12-13 00:00:00
1:30 AM,50.0,50.0,100,30.01,5.0,ENE,3.5,-,N/A,Rain,Light Rain,70,2012-12-13 00:30:00
2:00 AM,50.0,50.0,100,29.98,5.0,NE,3.5,-,N/A,Rain,Light Rain,40,2012-12-13 01:00:00
2:30 AM,50.0,50.0,100,29.98,5.0,ENE,4.6,-,N/A,Rain,Rain,70,2012-12-13 01:30:00
3:30 AM,51.8,50.0,94,29.98,5.0,NNE,3.5,-,N/A,Rain,Light Rain,30,2012-12-13 02:30:00
4:00 AM,51.8,50.0,94,29.98,5.0,NE,1.2,-,N/A,Rain,Light Rain,50,2012-12-13 03:00:00
4:30 AM,51.8,51.8,100,29.95,5.0,NE,3.5,-,N/A,,Mostly Cloudy,50,2012-12-13 03:30:00
5:00 AM,51.8,50.0,94,29.95,5.0,ENE,3.5,-,N/A,,Scattered Clouds,70,2012-12-13 04:00:00
5:30 AM,51.8,50.0,94,29.95,5.0,East,3.5,-,N/A,,Scattered Clouds,80,2012-12-13 04:30:00
6:00 AM,51.8,50.0,94,29.95,5.0,Variable,2.3,-,N/A,,Scattered Clouds,0,2012-12-13 05:00:00
6:30 AM,50.0,50.0,100,29.95,5.0,North,1.2,-,N/A,,Scattered Clouds,10,2012-12-13 05:30:00
7:00 AM,49,47,92,29.96,7,Calm,Calm,,,,Partly Cloudy,,2012-12-13 06:00:00
7:00 AM,50.0,50.0,100,29.95,6.2,Variable,1.2,-,N/A,,Scattered Clouds,0,2012-12-13 06:00:00
7:30 AM,50.0,50.0,100,29.95,6.2,Calm,Calm,-,N/A,,Scattered Clouds,0,2012-12-13 06:30:00
8:00 AM,50.0,50.0,100,29.95,6.2,Calm,Calm,-,N/A,,Scattered Clouds,0,2012-12-13 07:00:00
8:30 AM,50.0,48.2,94,29.95,6.2,Variable,1.2,-,N/A,,Partly Cloudy,0,2012-12-13 07:30:00
9:00 AM,50.0,50.0,100,29.98,6.2,Variable,2.3,-,N/A,,Scattered Clouds,0,2012-12-13 08:00:00
9:30 AM,51.8,51.8,100,29.98,6.2,Variable,1.2,-,N/A,,Scattered Clouds,0,2012-12-13 08:30:00
10:00 AM,53.6,51.8,94,29.98,6.2,Calm,Calm,-,N/A,,Scattered Clouds,0,2012-12-13 09:00:00
10:30 AM,53.6,53.6,100,29.98,6.2,East,2.3,-,N/A,,Partly Cloudy,100,2012-12-13 09:30:00
11:00 AM,57.2,55.4,94,29.98,6.2,Calm,Calm,-,N/A,,Partly Cloudy,0,2012-12-13 10:00:00
11:30 AM,59.0,55.4,88,29.98,6.2,Variable,2.3,-,N/A,,Partly Cloudy,0,2012-12-13 10:30:00
12:00 PM,59.0,55.4,88,29.98,6.2,WSW,4.6,-,N/A,,Partly Cloudy,250,2012-12-13 11:00:00
12:30 PM,59.0,53.6,82,29.95,6.2,SW,5.8,-,N/A,,Partly Cloudy,230,2012-12-13 11:30:00
1:00 PM,62,49,54,29.96,12,SW,9.2,,,,Scattered Clouds,220,2012-12-13 12:00:00
1:00 PM,60.8,51.8,72,29.95,6.2,SW,6.9,-,N/A,,Partly Cloudy,230,2012-12-13 12:00:00
1:30 PM,60.8,51.8,72,29.95,6.2,SW,6.9,-,N/A,,Partly Cloudy,220,2012-12-13 12:30:00
2:00 PM,60.8,51.8,72,29.95,6.2,SW,8.1,-,N/A,,Scattered Clouds,230,2012-12-13 13:00:00
2:30 PM,60.8,53.6,77,29.95,6.2,WSW,9.2,-,N/A,,Scattered Clouds,240,2012-12-13 13:30:00
3:00 PM,60.8,53.6,77,29.95,6.2,WSW,10.4,-,N/A,,Partly Cloudy,240,2012-12-13 14:00:00
3:30 PM,59.0,51.8,77,29.95,6.2,SW,10.4,-,N/A,,Partly Cloudy,230,2012-12-13 14:30:00
4:00 PM,59.0,51.8,77,29.92,6.2,SW,11.5,-,N/A,,Partly Cloudy,230,2012-12-13 15:00:00
4:30 PM,59.0,50.0,72,29.92,6.2,SW,11.5,-,N/A,,Partly Cloudy,230,2012-12-13 15:30:00
5:00 PM,57.2,50.0,77,29.92,6.2,WSW,8.1,-,N/A,,Partly Cloudy,240,2012-12-13 16:00:00
5:30 PM,57.2,51.8,82,29.92,6.2,WSW,8.1,-,N/A,,Scattered Clouds,240,2012-12-13 16:30:00
6:00 PM,57.2,50.0,77,29.95,6.2,SW,9.2,-,N/A,,Scattered Clouds,230,2012-12-13 17:00:00
6:30 PM,57.2,51.8,82,29.95,6.2,SW,9.2,-,N/A,,Mostly Cloudy,230,2012-12-13 17:30:00
7:00 PM,56,47,64,29.95,16,WSW,15.0,,,,Scattered Clouds,240,2012-12-13 18:00:00
7:00 PM,57.2,50.0,77,29.95,6.2,SW,11.5,-,N/A,,Partly Cloudy,230,2012-12-13 18:00:00
7:30 PM,57.2,51.8,82,29.95,6.2,SW,12.7,-,N/A,,Partly Cloudy,230,2012-12-13 18:30:00
8:00 PM,57.2,50.0,77,29.95,6.2,WSW,12.7,-,N/A,,Scattered Clouds,240,2012-12-13 19:00:00
8:30 PM,57.2,51.8,82,29.95,6.2,SW,10.4,-,N/A,,Mostly Cloudy,230,2012-12-13 19:30:00
9:00 PM,57.2,51.8,82,29.95,6.2,SW,11.5,-,N/A,,Mostly Cloudy,230,2012-12-13 20:00:00
9:30 PM,59.0,51.8,77,29.95,6.2,SW,12.7,-,N/A,,Mostly Cloudy,230,2012-12-13 20:30:00
10:00 PM,57.2,51.8,82,29.95,6.2,SW,10.4,-,N/A,,Mostly Cloudy,230,2012-12-13 21:00:00
10:30 PM,59.0,53.6,82,29.95,6.2,SW,11.5,-,N/A,,Scattered Clouds,230,2012-12-13 21:30:00
11:00 PM,59.0,53.6,82,29.95,6.2,SW,10.4,-,N/A,,Scattered Clouds,230,2012-12-13 22:00:00